Year,Month,Day,Hour,Minute,Value (Times are PST for temperature in C)
2019,08,05,00,00,17.50
2019,08,05,00,01,17.50
2019,08,05,00,02,17.50
2019,08,05,00,03,17.40
2019,08,05,00,04,17.40
2019,08,05,00,05,17.40
2019,08,05,00,06,17.40
2019,08,05,00,07,17.40
2019,08,05,00,08,17.30
2019,08,05,00,09,17.30
2019,08,05,00,10,17.30
2019,08,05,00,11,17.30
2019,08,05,00,12,17.20
2019,08,05,00,13,17.20
2019,08,05,00,14,17.20
2019,08,05,00,15,17.20
2019,08,05,00,16,17.10
2019,08,05,00,17,17.10
2019,08,05,00,18,17.10
2019,08,05,00,19,17.10
2019,08,05,00,20,17.00
2019,08,05,00,21,17.00
2019,08,05,00,22,17.00
2019,08,05,00,23,17.00
2019,08,05,00,24,17.00
2019,08,05,00,25,16.90
2019,08,05,00,26,16.90
2019,08,05,00,27,16.90
2019,08,05,00,28,16.90
2019,08,05,00,29,16.90
2019,08,05,00,30,16.90
2019,08,05,00,31,16.90
2019,08,05,00,32,16.90
2019,08,05,00,33,16.90
2019,08,05,00,34,16.90
2019,08,05,00,35,16.80
2019,08,05,00,36,16.80
2019,08,05,00,37,16.80
2019,08,05,00,38,16.80
2019,08,05,00,39,16.80
2019,08,05,00,40,16.80
2019,08,05,00,41,16.70
2019,08,05,00,42,16.70
2019,08,05,00,43,16.70
2019,08,05,00,44,16.70
2019,08,05,00,45,16.60
2019,08,05,00,46,16.60
2019,08,05,00,47,16.60
2019,08,05,00,48,16.60
2019,08,05,00,49,16.50
2019,08,05,00,50,16.50
2019,08,05,00,51,16.50
2019,08,05,00,52,16.40
2019,08,05,00,53,16.40
2019,08,05,00,54,16.40
2019,08,05,00,55,16.40
2019,08,05,00,56,16.30
2019,08,05,00,57,16.30
2019,08,05,00,58,16.30
2019,08,05,00,59,16.30
2019,08,05,01,00,16.30
2019,08,05,01,01,16.30
2019,08,05,01,02,16.30
2019,08,05,01,03,16.30
2019,08,05,01,04,16.30
2019,08,05,01,05,16.20
2019,08,05,01,06,16.20
2019,08,05,01,07,16.20
2019,08,05,01,08,16.20
2019,08,05,01,09,16.10
2019,08,05,01,10,16.10
2019,08,05,01,11,16.10
2019,08,05,01,12,16.10
2019,08,05,01,13,16.00
2019,08,05,01,14,16.00
2019,08,05,01,15,15.90
2019,08,05,01,16,15.90
2019,08,05,01,17,15.90
2019,08,05,01,18,15.90
2019,08,05,01,19,15.80
2019,08,05,01,20,15.80
2019,08,05,01,21,15.80
2019,08,05,01,22,15.70
2019,08,05,01,23,15.70
2019,08,05,01,24,15.70
2019,08,05,01,25,15.70
2019,08,05,01,26,15.60
2019,08,05,01,27,15.60
2019,08,05,01,28,15.60
2019,08,05,01,29,15.60
2019,08,05,01,30,15.60
2019,08,05,01,31,15.50
2019,08,05,01,32,15.50
2019,08,05,01,33,15.50
2019,08,05,01,34,15.50
2019,08,05,01,35,15.40
2019,08,05,01,36,15.40
2019,08,05,01,37,15.40
2019,08,05,01,38,15.30
2019,08,05,01,39,15.30
2019,08,05,01,40,15.20
2019,08,05,01,41,15.20
2019,08,05,01,42,15.20
2019,08,05,01,43,15.20
2019,08,05,01,44,15.20
2019,08,05,01,45,15.20
2019,08,05,01,46,15.10
2019,08,05,01,47,15.10
2019,08,05,01,48,15.10
2019,08,05,01,49,15.10
2019,08,05,01,50,15.10
2019,08,05,01,51,15.00
2019,08,05,01,52,15.00
2019,08,05,01,53,15.00
2019,08,05,01,54,15.00
2019,08,05,01,55,15.00
2019,08,05,01,56,15.00
2019,08,05,01,57,15.00
2019,08,05,01,58,15.00
2019,08,05,01,59,15.00
2019,08,05,02,00,15.00
2019,08,05,02,01,15.00
2019,08,05,02,02,15.00
2019,08,05,02,03,14.90
2019,08,05,02,04,14.90
2019,08,05,02,05,14.90
2019,08,05,02,06,14.90
2019,08,05,02,07,14.90
2019,08,05,02,08,14.90
2019,08,05,02,09,14.90
2019,08,05,02,10,14.90
2019,08,05,02,11,14.80
2019,08,05,02,12,14.80
2019,08,05,02,13,14.80
2019,08,05,02,14,14.80
2019,08,05,02,15,14.80
2019,08,05,02,16,14.80
2019,08,05,02,17,14.80
2019,08,05,02,18,14.80
2019,08,05,02,19,14.70
2019,08,05,02,20,14.70
2019,08,05,02,21,14.70
2019,08,05,02,22,14.70
2019,08,05,02,23,14.70
2019,08,05,02,24,14.70
2019,08,05,02,25,14.70
2019,08,05,02,26,14.70
2019,08,05,02,27,14.70
2019,08,05,02,28,14.60
2019,08,05,02,29,14.60
2019,08,05,02,30,14.60
2019,08,05,02,31,14.50
2019,08,05,02,32,14.50
2019,08,05,02,33,14.50
2019,08,05,02,34,14.40
2019,08,05,02,35,14.40
2019,08,05,02,36,14.40
2019,08,05,02,37,14.30
2019,08,05,02,38,14.30
2019,08,05,02,39,14.20
2019,08,05,02,40,14.20
2019,08,05,02,41,14.20
2019,08,05,02,42,14.20
2019,08,05,02,43,14.10
2019,08,05,02,44,14.10
2019,08,05,02,45,14.10
2019,08,05,02,46,14.10
2019,08,05,02,47,14.10
2019,08,05,02,48,14.00
2019,08,05,02,49,14.00
2019,08,05,02,50,14.00
2019,08,05,02,51,13.90
2019,08,05,02,52,13.90
2019,08,05,02,53,13.90
2019,08,05,02,54,13.90
2019,08,05,02,55,13.80
2019,08,05,02,56,13.80
2019,08,05,02,57,13.80
2019,08,05,02,58,13.80
2019,08,05,02,59,13.80
2019,08,05,03,00,13.80
2019,08,05,03,01,13.80
2019,08,05,03,02,13.80
2019,08,05,03,03,13.80
2019,08,05,03,04,13.80
2019,08,05,03,05,13.80
2019,08,05,03,06,13.80
2019,08,05,03,07,13.80
2019,08,05,03,08,13.80
2019,08,05,03,09,13.80
2019,08,05,03,10,13.80
2019,08,05,03,11,13.70
2019,08,05,03,12,13.70
2019,08,05,03,13,13.70
2019,08,05,03,14,13.70
2019,08,05,03,15,13.70
2019,08,05,03,16,13.70
2019,08,05,03,17,13.70
2019,08,05,03,18,13.70
2019,08,05,03,19,13.70
2019,08,05,03,20,13.60
2019,08,05,03,21,13.60
2019,08,05,03,22,13.60
2019,08,05,03,23,13.60
2019,08,05,03,24,13.60
2019,08,05,03,25,13.60
2019,08,05,03,26,13.60
2019,08,05,03,27,13.60
2019,08,05,03,28,13.60
2019,08,05,03,29,13.50
2019,08,05,03,30,13.50
2019,08,05,03,31,13.50
2019,08,05,03,32,13.50
2019,08,05,03,33,13.50
2019,08,05,03,34,13.40
2019,08,05,03,35,13.40
2019,08,05,03,36,13.40
2019,08,05,03,37,13.40
2019,08,05,03,38,13.40
2019,08,05,03,39,13.40
2019,08,05,03,40,13.40
2019,08,05,03,41,13.40
2019,08,05,03,42,13.30
2019,08,05,03,43,13.30
2019,08,05,03,44,13.30
2019,08,05,03,45,13.30
2019,08,05,03,46,13.30
2019,08,05,03,47,13.30
2019,08,05,03,48,13.30
2019,08,05,03,49,13.20
2019,08,05,03,50,13.20
2019,08,05,03,51,13.20
2019,08,05,03,52,13.20
2019,08,05,03,53,13.10
2019,08,05,03,54,13.10
2019,08,05,03,55,13.10
2019,08,05,03,56,13.10
2019,08,05,03,57,13.00
2019,08,05,03,58,13.00
2019,08,05,03,59,13.00
2019,08,05,04,00,13.00
2019,08,05,04,01,13.00
2019,08,05,04,02,12.90
2019,08,05,04,03,12.90
2019,08,05,04,04,12.90
2019,08,05,04,05,12.90
2019,08,05,04,06,12.90
2019,08,05,04,07,12.90
2019,08,05,04,08,12.80
2019,08,05,04,09,12.80
2019,08,05,04,10,12.80
2019,08,05,04,11,12.80
2019,08,05,04,12,12.80
2019,08,05,04,13,12.80
2019,08,05,04,14,12.80
2019,08,05,04,15,12.80
2019,08,05,04,16,12.80
2019,08,05,04,17,12.80
2019,08,05,04,18,12.80
2019,08,05,04,19,12.80
2019,08,05,04,20,12.80
2019,08,05,04,21,12.80
2019,08,05,04,22,12.80
2019,08,05,04,23,12.80
2019,08,05,04,24,12.80
2019,08,05,04,25,12.80
2019,08,05,04,26,12.80
2019,08,05,04,27,12.80
2019,08,05,04,28,12.70
2019,08,05,04,29,12.70
2019,08,05,04,30,12.70
2019,08,05,04,31,12.70
2019,08,05,04,32,12.70
2019,08,05,04,33,12.70
2019,08,05,04,34,12.70
2019,08,05,04,35,12.70
2019,08,05,04,36,12.70
2019,08,05,04,37,12.70
2019,08,05,04,38,12.70
2019,08,05,04,39,12.70
2019,08,05,04,40,12.70
2019,08,05,04,41,12.70
2019,08,05,04,42,12.70
2019,08,05,04,43,12.70
2019,08,05,04,44,12.70
2019,08,05,04,45,12.70
2019,08,05,04,46,12.70
2019,08,05,04,47,12.60
2019,08,05,04,48,12.60
2019,08,05,04,49,12.60
2019,08,05,04,50,12.60
2019,08,05,04,51,12.60
2019,08,05,04,52,12.60
2019,08,05,04,53,12.60
2019,08,05,04,54,12.60
2019,08,05,04,55,12.50
2019,08,05,04,56,12.50
2019,08,05,04,57,12.50
2019,08,05,04,58,12.50
2019,08,05,04,59,12.40
2019,08,05,05,00,12.40
2019,08,05,05,01,12.40
2019,08,05,05,02,12.40
2019,08,05,05,03,12.40
2019,08,05,05,04,12.40
2019,08,05,05,05,12.40
2019,08,05,05,06,12.40
2019,08,05,05,07,12.40
2019,08,05,05,08,12.40
2019,08,05,05,09,12.40
2019,08,05,05,10,12.40
2019,08,05,05,11,12.30
2019,08,05,05,12,12.30
2019,08,05,05,13,12.30
2019,08,05,05,14,12.30
2019,08,05,05,15,12.30
2019,08,05,05,16,12.30
2019,08,05,05,17,12.20
2019,08,05,05,18,12.20
2019,08,05,05,19,12.20
2019,08,05,05,20,12.20
2019,08,05,05,21,12.20
2019,08,05,05,22,12.20
2019,08,05,05,23,12.20
2019,08,05,05,24,12.20
2019,08,05,05,25,12.10
2019,08,05,05,26,12.10
2019,08,05,05,27,12.10
2019,08,05,05,28,12.10
2019,08,05,05,29,12.10
2019,08,05,05,30,12.10
2019,08,05,05,31,12.10
2019,08,05,05,32,12.10
2019,08,05,05,33,12.10
2019,08,05,05,34,12.10
2019,08,05,05,35,12.10
2019,08,05,05,36,12.10
2019,08,05,05,37,12.10
2019,08,05,05,38,12.10
2019,08,05,05,39,12.10
2019,08,05,05,40,12.10
2019,08,05,05,41,12.10
2019,08,05,05,42,12.10
2019,08,05,05,43,12.00
2019,08,05,05,44,12.00
2019,08,05,05,45,12.00
2019,08,05,05,46,12.00
2019,08,05,05,47,12.00
2019,08,05,05,48,12.00
2019,08,05,05,49,12.00
2019,08,05,05,50,12.00
2019,08,05,05,51,12.00
2019,08,05,05,52,12.00
2019,08,05,05,53,12.00
2019,08,05,05,54,12.00
2019,08,05,05,55,12.00
2019,08,05,05,56,12.00
2019,08,05,05,57,12.00
2019,08,05,05,58,12.00
2019,08,05,05,59,12.00
2019,08,05,06,00,11.90
2019,08,05,06,01,11.90
2019,08,05,06,02,11.90
2019,08,05,06,03,11.90
2019,08,05,06,04,11.90
2019,08,05,06,05,11.90
2019,08,05,06,06,11.80
2019,08,05,06,07,11.80
2019,08,05,06,08,11.80
2019,08,05,06,09,11.80
2019,08,05,06,10,11.80
2019,08,05,06,11,11.80
2019,08,05,06,12,11.80
2019,08,05,06,13,11.80
2019,08,05,06,14,11.80
2019,08,05,06,15,11.80
2019,08,05,06,16,11.70
2019,08,05,06,17,11.80
2019,08,05,06,18,11.80
2019,08,05,06,19,11.70
2019,08,05,06,20,11.80
2019,08,05,06,21,11.80
2019,08,05,06,22,11.80
2019,08,05,06,23,11.80
2019,08,05,06,24,11.80
2019,08,05,06,25,11.80
2019,08,05,06,26,11.80
2019,08,05,06,27,11.80
2019,08,05,06,28,11.80
2019,08,05,06,29,11.80
2019,08,05,06,30,11.80
2019,08,05,06,31,11.80
2019,08,05,06,32,11.80
2019,08,05,06,33,11.80
2019,08,05,06,34,11.80
2019,08,05,06,35,11.80
2019,08,05,06,36,11.80
2019,08,05,06,37,11.90
2019,08,05,06,38,11.90
2019,08,05,06,39,11.90
2019,08,05,06,40,11.90
2019,08,05,06,41,11.90
2019,08,05,06,42,11.90
2019,08,05,06,43,11.90
2019,08,05,06,44,11.90
2019,08,05,06,45,11.90
2019,08,05,06,46,11.90
2019,08,05,06,47,11.90
2019,08,05,06,48,12.00
2019,08,05,06,49,12.00
2019,08,05,06,50,12.00
2019,08,05,06,51,12.00
2019,08,05,06,52,12.00
2019,08,05,06,53,12.00
2019,08,05,06,54,12.00
2019,08,05,06,55,12.00
2019,08,05,06,56,12.00
2019,08,05,06,57,12.10
2019,08,05,06,58,12.10
2019,08,05,06,59,12.10
2019,08,05,07,00,12.10
2019,08,05,07,01,12.10
2019,08,05,07,02,12.10
2019,08,05,07,03,12.10
2019,08,05,07,04,12.20
2019,08,05,07,05,12.20
2019,08,05,07,06,12.20
2019,08,05,07,07,12.20
2019,08,05,07,08,12.20
2019,08,05,07,09,12.20
2019,08,05,07,10,12.20
2019,08,05,07,11,12.30
2019,08,05,07,12,12.30
2019,08,05,07,13,12.40
2019,08,05,07,14,12.40
2019,08,05,07,15,12.50
2019,08,05,07,16,12.50
2019,08,05,07,17,12.60
2019,08,05,07,18,12.70
2019,08,05,07,19,12.70
2019,08,05,07,20,12.80
2019,08,05,07,21,12.80
2019,08,05,07,22,12.90
2019,08,05,07,23,13.00
2019,08,05,07,24,13.00
2019,08,05,07,25,13.10
2019,08,05,07,26,13.20
2019,08,05,07,27,13.20
2019,08,05,07,28,13.30
2019,08,05,07,29,13.30
2019,08,05,07,30,13.40
2019,08,05,07,31,13.50
2019,08,05,07,32,13.50
2019,08,05,07,33,13.60
2019,08,05,07,34,13.70
2019,08,05,07,35,13.80
2019,08,05,07,36,14.00
2019,08,05,07,37,14.10
2019,08,05,07,38,14.10
2019,08,05,07,39,14.20
2019,08,05,07,40,14.20
2019,08,05,07,41,14.20
2019,08,05,07,42,14.30
2019,08,05,07,43,14.30
2019,08,05,07,44,14.30
2019,08,05,07,45,14.40
2019,08,05,07,46,14.50
2019,08,05,07,47,14.60
2019,08,05,07,48,14.70
2019,08,05,07,49,14.70
2019,08,05,07,50,14.80
2019,08,05,07,51,14.80
2019,08,05,07,52,14.80
2019,08,05,07,53,14.90
2019,08,05,07,54,14.90
2019,08,05,07,55,14.90
2019,08,05,07,56,14.90
2019,08,05,07,57,14.90
2019,08,05,07,58,14.90
2019,08,05,07,59,15.00
2019,08,05,08,00,15.00
2019,08,05,08,01,15.00
2019,08,05,08,02,15.10
2019,08,05,08,03,15.10
2019,08,05,08,04,15.10
2019,08,05,08,05,15.20
2019,08,05,08,06,15.20
2019,08,05,08,07,15.20
2019,08,05,08,08,15.30
2019,08,05,08,09,15.30
2019,08,05,08,10,15.30
2019,08,05,08,11,15.40
2019,08,05,08,12,15.40
2019,08,05,08,13,15.40
2019,08,05,08,14,15.50
2019,08,05,08,15,15.50
2019,08,05,08,16,15.60
2019,08,05,08,17,15.70
2019,08,05,08,18,15.70
2019,08,05,08,19,15.70
2019,08,05,08,20,15.80
2019,08,05,08,21,15.90
2019,08,05,08,22,16.00
2019,08,05,08,23,16.10
2019,08,05,08,24,16.20
2019,08,05,08,25,16.30
2019,08,05,08,26,16.40
2019,08,05,08,27,16.60
2019,08,05,08,28,16.70
2019,08,05,08,29,16.70
2019,08,05,08,30,16.70
2019,08,05,08,31,16.80
2019,08,05,08,32,16.80
2019,08,05,08,33,16.80
2019,08,05,08,34,16.90
2019,08,05,08,35,16.90
2019,08,05,08,36,17.00
2019,08,05,08,37,17.00
2019,08,05,08,38,17.10
2019,08,05,08,39,17.20
2019,08,05,08,40,17.30
2019,08,05,08,41,17.40
2019,08,05,08,42,17.50
2019,08,05,08,43,17.60
2019,08,05,08,44,17.70
2019,08,05,08,45,17.80
2019,08,05,08,46,17.80
2019,08,05,08,47,17.90
2019,08,05,08,48,18.00
2019,08,05,08,49,18.00
2019,08,05,08,50,18.00
2019,08,05,08,51,18.10
2019,08,05,08,52,18.20
2019,08,05,08,53,18.20
2019,08,05,08,54,18.20
2019,08,05,08,55,18.20
2019,08,05,08,56,18.20
2019,08,05,08,57,18.20
2019,08,05,08,58,18.20
2019,08,05,08,59,18.30
2019,08,05,09,00,18.30
2019,08,05,09,01,18.40
2019,08,05,09,02,18.50
2019,08,05,09,03,18.60
2019,08,05,09,04,18.80
2019,08,05,09,05,18.90
2019,08,05,09,06,19.00
2019,08,05,09,07,19.10
2019,08,05,09,08,19.20
2019,08,05,09,09,19.20
2019,08,05,09,10,19.20
2019,08,05,09,11,19.20
2019,08,05,09,12,19.30
2019,08,05,09,13,19.30
2019,08,05,09,14,19.30
2019,08,05,09,15,19.30
2019,08,05,09,16,19.40
2019,08,05,09,17,19.40
2019,08,05,09,18,19.40
2019,08,05,09,19,19.50
2019,08,05,09,20,19.60
2019,08,05,09,21,19.60
2019,08,05,09,22,19.60
2019,08,05,09,23,19.60
2019,08,05,09,24,19.60
2019,08,05,09,25,19.60
2019,08,05,09,26,19.60
2019,08,05,09,27,19.70
2019,08,05,09,28,19.70
2019,08,05,09,29,19.70
2019,08,05,09,30,19.80
2019,08,05,09,31,19.90
2019,08,05,09,32,19.90
2019,08,05,09,33,19.90
2019,08,05,09,34,20.00
2019,08,05,09,35,20.00
2019,08,05,09,36,20.00
2019,08,05,09,37,20.10
2019,08,05,09,38,20.20
2019,08,05,09,39,20.30
2019,08,05,09,40,20.30
2019,08,05,09,41,20.40
2019,08,05,09,42,20.40
2019,08,05,09,43,20.40
2019,08,05,09,44,20.40
2019,08,05,09,45,20.40
2019,08,05,09,46,20.40
2019,08,05,09,47,20.40
2019,08,05,09,48,20.40
2019,08,05,09,49,20.50
2019,08,05,09,50,20.50
2019,08,05,09,51,20.60
2019,08,05,09,52,20.60
2019,08,05,09,53,20.60
2019,08,05,09,54,20.50
2019,08,05,09,55,20.50
2019,08,05,09,56,20.50
2019,08,05,09,57,20.50
2019,08,05,09,58,20.60
2019,08,05,09,59,20.60
2019,08,05,10,00,20.60
2019,08,05,10,01,20.70
2019,08,05,10,02,20.70
2019,08,05,10,03,20.80
2019,08,05,10,04,20.90
2019,08,05,10,05,21.00
2019,08,05,10,06,21.10
2019,08,05,10,07,21.20
2019,08,05,10,08,21.30
2019,08,05,10,09,21.50
2019,08,05,10,10,21.60
2019,08,05,10,11,21.60
2019,08,05,10,12,21.70
2019,08,05,10,13,21.80
2019,08,05,10,14,21.80
2019,08,05,10,15,21.80
2019,08,05,10,16,21.90
2019,08,05,10,17,21.90
2019,08,05,10,18,21.90
2019,08,05,10,19,21.90
2019,08,05,10,20,21.90
2019,08,05,10,21,21.90
2019,08,05,10,22,21.90
2019,08,05,10,23,21.90
2019,08,05,10,24,22.00
2019,08,05,10,25,22.00
2019,08,05,10,26,22.10
2019,08,05,10,27,22.20
2019,08,05,10,28,22.30
2019,08,05,10,29,22.30
2019,08,05,10,30,22.30
2019,08,05,10,31,22.30
2019,08,05,10,32,22.30
2019,08,05,10,33,22.40
2019,08,05,10,34,22.40
2019,08,05,10,35,22.40
2019,08,05,10,36,22.50
2019,08,05,10,37,22.60
2019,08,05,10,38,22.60
2019,08,05,10,39,22.60
2019,08,05,10,40,22.60
2019,08,05,10,41,22.60
2019,08,05,10,42,22.70
2019,08,05,10,43,22.80
2019,08,05,10,44,22.80
2019,08,05,10,45,22.80
2019,08,05,10,46,22.80
2019,08,05,10,47,22.90
2019,08,05,10,48,22.90
2019,08,05,10,49,22.90
2019,08,05,10,50,22.90
2019,08,05,10,51,22.90
2019,08,05,10,52,22.90
2019,08,05,10,53,22.90
2019,08,05,10,54,22.90
2019,08,05,10,55,22.90
2019,08,05,10,56,23.00
2019,08,05,10,57,23.10
2019,08,05,10,58,23.10
2019,08,05,10,59,23.10
2019,08,05,11,00,23.20
2019,08,05,11,01,23.20
2019,08,05,11,02,23.20
2019,08,05,11,03,23.30
2019,08,05,11,04,23.30
2019,08,05,11,05,23.30
2019,08,05,11,06,23.30
2019,08,05,11,07,23.30
2019,08,05,11,08,23.40
2019,08,05,11,09,23.40
2019,08,05,11,10,23.40
2019,08,05,11,11,23.40
2019,08,05,11,12,23.40
2019,08,05,11,13,23.40
2019,08,05,11,14,23.50
2019,08,05,11,15,23.50
2019,08,05,11,16,23.60
2019,08,05,11,17,23.70
2019,08,05,11,18,23.70
2019,08,05,11,19,23.80
2019,08,05,11,20,23.80
2019,08,05,11,21,23.80
2019,08,05,11,22,23.80
2019,08,05,11,23,23.90
2019,08,05,11,24,23.90
2019,08,05,11,25,24.00
2019,08,05,11,26,24.10
2019,08,05,11,27,24.10
2019,08,05,11,28,24.10
2019,08,05,11,29,24.20
2019,08,05,11,30,24.30
2019,08,05,11,31,24.30
2019,08,05,11,32,24.40
2019,08,05,11,33,24.50
2019,08,05,11,34,24.60
2019,08,05,11,35,24.70
2019,08,05,11,36,24.70
2019,08,05,11,37,24.80
2019,08,05,11,38,24.80
2019,08,05,11,39,24.80
2019,08,05,11,40,24.80
2019,08,05,11,41,24.80
2019,08,05,11,42,24.80
2019,08,05,11,43,24.80
2019,08,05,11,44,24.70
2019,08,05,11,45,24.70
2019,08,05,11,46,24.70
2019,08,05,11,47,24.70
2019,08,05,11,48,24.80
2019,08,05,11,49,24.80
2019,08,05,11,50,24.80
2019,08,05,11,51,24.80
2019,08,05,11,52,24.90
2019,08,05,11,53,24.90
2019,08,05,11,54,24.90
2019,08,05,11,55,24.90
2019,08,05,11,56,24.80
2019,08,05,11,57,24.80
2019,08,05,11,58,24.80
2019,08,05,11,59,24.80
2019,08,05,12,00,24.70
2019,08,05,12,01,24.70
2019,08,05,12,02,24.70
2019,08,05,12,03,24.70
2019,08,05,12,04,24.70
2019,08,05,12,05,24.70
2019,08,05,12,06,24.70
2019,08,05,12,07,24.80
2019,08,05,12,08,24.80
2019,08,05,12,09,24.90
2019,08,05,12,10,24.90
2019,08,05,12,11,24.90
2019,08,05,12,12,24.80
2019,08,05,12,13,24.80
2019,08,05,12,14,24.80
2019,08,05,12,15,24.90
2019,08,05,12,16,24.90
2019,08,05,12,17,25.00
2019,08,05,12,18,25.00
2019,08,05,12,19,25.10
2019,08,05,12,20,25.10
2019,08,05,12,21,25.20
2019,08,05,12,22,25.30
2019,08,05,12,23,25.30
2019,08,05,12,24,25.30
2019,08,05,12,25,25.30
2019,08,05,12,26,25.30
2019,08,05,12,27,25.30
2019,08,05,12,28,25.30
2019,08,05,12,29,25.40
2019,08,05,12,30,25.40
2019,08,05,12,31,25.40
2019,08,05,12,32,25.50
2019,08,05,12,33,25.50
2019,08,05,12,34,25.50
2019,08,05,12,35,25.60
2019,08,05,12,36,25.60
2019,08,05,12,37,25.70
2019,08,05,12,38,25.80
2019,08,05,12,39,25.90
2019,08,05,12,40,25.90
2019,08,05,12,41,26.00
2019,08,05,12,42,26.00
2019,08,05,12,43,26.10
2019,08,05,12,44,26.10
2019,08,05,12,45,26.20
2019,08,05,12,46,26.20
2019,08,05,12,47,26.30
2019,08,05,12,48,26.30
2019,08,05,12,49,26.30
2019,08,05,12,50,26.30
2019,08,05,12,51,26.30
2019,08,05,12,52,26.30
2019,08,05,12,53,26.40
2019,08,05,12,54,26.40
2019,08,05,12,55,26.40
2019,08,05,12,56,26.40
2019,08,05,12,57,26.50
2019,08,05,12,58,26.50
2019,08,05,12,59,26.60
2019,08,05,13,00,26.60
2019,08,05,13,01,26.70
2019,08,05,13,02,26.80
2019,08,05,13,03,26.80
2019,08,05,13,04,26.90
2019,08,05,13,05,27.00
2019,08,05,13,06,27.00
2019,08,05,13,07,26.90
2019,08,05,13,08,26.90
2019,08,05,13,09,26.90
2019,08,05,13,10,26.90
2019,08,05,13,11,26.90
2019,08,05,13,12,26.90
2019,08,05,13,13,26.90
2019,08,05,13,14,27.00
2019,08,05,13,15,27.00
2019,08,05,13,16,27.00
2019,08,05,13,17,27.10
2019,08,05,13,18,27.20
2019,08,05,13,19,27.30
2019,08,05,13,20,27.30
2019,08,05,13,21,27.30
2019,08,05,13,22,27.30
2019,08,05,13,23,27.30
2019,08,05,13,24,27.30
2019,08,05,13,25,27.30
2019,08,05,13,26,27.30
2019,08,05,13,27,27.30
2019,08,05,13,28,27.30
2019,08,05,13,29,27.30
2019,08,05,13,30,27.30
2019,08,05,13,31,27.30
2019,08,05,13,32,27.30
2019,08,05,13,33,27.30
2019,08,05,13,34,27.40
2019,08,05,13,35,27.40
2019,08,05,13,36,27.40
2019,08,05,13,37,27.40
2019,08,05,13,38,27.50
2019,08,05,13,39,27.60
2019,08,05,13,40,27.80
2019,08,05,13,41,27.90
2019,08,05,13,42,28.00
2019,08,05,13,43,28.10
2019,08,05,13,44,28.10
2019,08,05,13,45,28.10
2019,08,05,13,46,28.10
2019,08,05,13,47,28.10
2019,08,05,13,48,28.10
2019,08,05,13,49,28.10
2019,08,05,13,50,28.20
2019,08,05,13,51,28.20
2019,08,05,13,52,28.30
2019,08,05,13,53,28.40
2019,08,05,13,54,28.50
2019,08,05,13,55,28.50
2019,08,05,13,56,28.60
2019,08,05,13,57,28.60
2019,08,05,13,58,28.70
2019,08,05,13,59,28.70
2019,08,05,14,00,28.80
2019,08,05,14,01,28.80
2019,08,05,14,02,28.90
2019,08,05,14,03,28.90
2019,08,05,14,04,29.00
2019,08,05,14,05,29.10
2019,08,05,14,06,29.10
2019,08,05,14,07,29.10
2019,08,05,14,08,29.10
2019,08,05,14,09,29.20
2019,08,05,14,10,29.20
2019,08,05,14,11,29.20
2019,08,05,14,12,29.20
2019,08,05,14,13,29.30
2019,08,05,14,14,29.30
2019,08,05,14,15,29.30
2019,08,05,14,16,29.30
2019,08,05,14,17,29.40
2019,08,05,14,18,29.60
2019,08,05,14,19,29.60
2019,08,05,14,20,29.70
2019,08,05,14,21,29.70
2019,08,05,14,22,29.70
2019,08,05,14,23,29.80
2019,08,05,14,24,29.80
2019,08,05,14,25,29.80
2019,08,05,14,26,29.80
2019,08,05,14,27,29.80
2019,08,05,14,28,29.80
2019,08,05,14,29,29.90
2019,08,05,14,30,29.90
2019,08,05,14,31,29.90
2019,08,05,14,32,30.00
2019,08,05,14,33,30.00
2019,08,05,14,34,29.90
2019,08,05,14,35,29.80
2019,08,05,14,36,29.70
2019,08,05,14,37,29.70
2019,08,05,14,38,29.60
2019,08,05,14,39,29.60
2019,08,05,14,40,29.60
2019,08,05,14,41,29.70
2019,08,05,14,42,29.70
2019,08,05,14,43,29.80
2019,08,05,14,44,29.80
2019,08,05,14,45,29.90
2019,08,05,14,46,29.90
2019,08,05,14,47,29.90
2019,08,05,14,48,29.90
2019,08,05,14,49,29.90
2019,08,05,14,50,29.90
2019,08,05,14,51,30.00
2019,08,05,14,52,29.90
2019,08,05,14,53,29.90
2019,08,05,14,54,30.00
2019,08,05,14,55,30.00
2019,08,05,14,56,30.10
2019,08,05,14,57,30.20
2019,08,05,14,58,30.30
2019,08,05,14,59,30.40
2019,08,05,15,00,30.40
2019,08,05,15,01,30.50
2019,08,05,15,02,30.60
2019,08,05,15,03,30.60
2019,08,05,15,04,30.70
2019,08,05,15,05,30.60
2019,08,05,15,06,30.50
2019,08,05,15,07,30.50
2019,08,05,15,08,30.60
2019,08,05,15,09,30.60
2019,08,05,15,10,30.70
2019,08,05,15,11,30.70
2019,08,05,15,12,30.70
2019,08,05,15,13,30.70
2019,08,05,15,14,30.70
2019,08,05,15,15,30.70
2019,08,05,15,16,30.60
2019,08,05,15,17,30.60
2019,08,05,15,18,30.50
2019,08,05,15,19,30.40
2019,08,05,15,20,30.40
2019,08,05,15,21,30.40
2019,08,05,15,22,30.40
2019,08,05,15,23,30.40
2019,08,05,15,24,30.40
2019,08,05,15,25,30.50
2019,08,05,15,26,30.50
2019,08,05,15,27,30.60
2019,08,05,15,28,30.60
2019,08,05,15,29,30.60
2019,08,05,15,30,30.60
2019,08,05,15,31,30.60
2019,08,05,15,32,30.60
2019,08,05,15,33,30.60
2019,08,05,15,34,30.60
2019,08,05,15,35,30.70
2019,08,05,15,36,30.70
2019,08,05,15,37,30.70
2019,08,05,15,38,30.70
2019,08,05,15,39,30.70
2019,08,05,15,40,30.70
2019,08,05,15,41,30.70
2019,08,05,15,42,30.70
2019,08,05,15,43,30.70
2019,08,05,15,44,30.80
2019,08,05,15,45,30.80
2019,08,05,15,46,30.80
2019,08,05,15,47,30.80
2019,08,05,15,48,30.80
2019,08,05,15,49,30.90
2019,08,05,15,50,30.90
2019,08,05,15,51,30.90
2019,08,05,15,52,30.90
2019,08,05,15,53,30.90
2019,08,05,15,54,30.90
2019,08,05,15,55,30.90
2019,08,05,15,56,31.00
2019,08,05,15,57,30.90
2019,08,05,15,58,30.90
2019,08,05,15,59,30.90
2019,08,05,16,00,31.00
2019,08,05,16,01,31.00
2019,08,05,16,02,31.10
2019,08,05,16,03,31.10
2019,08,05,16,04,31.10
2019,08,05,16,05,31.00
2019,08,05,16,06,30.90
2019,08,05,16,07,30.90
2019,08,05,16,08,30.80
2019,08,05,16,09,30.80
2019,08,05,16,10,30.80
2019,08,05,16,11,30.70
2019,08,05,16,12,30.70
2019,08,05,16,13,30.60
2019,08,05,16,14,30.60
2019,08,05,16,15,30.60
2019,08,05,16,16,30.60
2019,08,05,16,17,30.60
2019,08,05,16,18,30.50
2019,08,05,16,19,30.50
2019,08,05,16,20,30.60
2019,08,05,16,21,30.60
2019,08,05,16,22,30.60
2019,08,05,16,23,30.60
2019,08,05,16,24,30.50
2019,08,05,16,25,30.40
2019,08,05,16,26,30.30
2019,08,05,16,27,30.20
2019,08,05,16,28,30.20
2019,08,05,16,29,30.20
2019,08,05,16,30,30.20
2019,08,05,16,31,30.20
2019,08,05,16,32,30.20
2019,08,05,16,33,30.20
2019,08,05,16,34,30.20
2019,08,05,16,35,30.10
2019,08,05,16,36,30.00
2019,08,05,16,37,30.00
2019,08,05,16,38,29.90
2019,08,05,16,39,29.80
2019,08,05,16,40,29.80
2019,08,05,16,41,29.80
2019,08,05,16,42,29.80
2019,08,05,16,43,29.80
2019,08,05,16,44,29.70
2019,08,05,16,45,29.70
2019,08,05,16,46,29.70
2019,08,05,16,47,29.70
2019,08,05,16,48,29.80
2019,08,05,16,49,29.80
2019,08,05,16,50,29.90
2019,08,05,16,51,29.90
2019,08,05,16,52,30.00
2019,08,05,16,53,30.10
2019,08,05,16,54,30.10
2019,08,05,16,55,30.00
2019,08,05,16,56,29.90
2019,08,05,16,57,29.80
2019,08,05,16,58,29.80
2019,08,05,16,59,29.70
2019,08,05,17,00,29.70
2019,08,05,17,01,29.70
2019,08,05,17,02,29.60
2019,08,05,17,03,29.60
2019,08,05,17,04,29.60
2019,08,05,17,05,29.50
2019,08,05,17,06,29.50
2019,08,05,17,07,29.50
2019,08,05,17,08,29.50
2019,08,05,17,09,29.50
2019,08,05,17,10,29.50
2019,08,05,17,11,29.60
2019,08,05,17,12,29.60
2019,08,05,17,13,29.50
2019,08,05,17,14,29.50
2019,08,05,17,15,29.40
2019,08,05,17,16,29.40
2019,08,05,17,17,29.40
2019,08,05,17,18,29.40
2019,08,05,17,19,29.40